Location: Eppenbrunn
(49.1158°N, 7.5601°E)
Time: 13:43:43
(UTC+00:00)

SeaSat 1 - Pass Details

Date: 09 April 2020
Orbit: 745 x 746 km, 108.0° (Epoch: 02 June)

Event Time Altitude Azimuth Distance (km) Brightness Sun altitude
Rises 19:49:36 0° 24° (NNE) 3,201 5.8 -15.3°
Reaches altitude 10° 19:52:03 10° 15° (NNE) 2,273 5.2 -15.6°
Maximum altitude 19:56:25 33° 312° (NW) 1,250 4.3 -16.2°
Drops below altitude 10° 20:00:46 10° 250° (WSW) 2,263 5.4 -16.8°
Sets 20:03:13 0° 241° (WSW) 3,183 6.1 -17.1°
